sat.trackr.live / text

‹ back to catalog

STARLINK-34710

NORAD 65365 · 2025-190Q

PAYLOAD ACTIVE UNKNOWN

§ Identity

Operator
Country
US
Launch date
2025-08-28
Launch site
AFETR
Launch vehicle
Mass (kg)
RCS (m²)

Purposes: comms

External: N2YO · Heavens-Above · Gunter

§ Orbital elements

Epoch: 2026-09-20T22:41:47.093280Z

Period
93.85 min
Inclination
53.1615°
Eccentricity
0.0001329
Mean motion
15.34395711 rev/d
Perigee alt
461.8 km
Apogee alt
463.6 km
Semi-major
6,840.9 km
B*
3.8070e-4
RAAN
339.5432°
Arg perigee
72.6272°
Mean anomaly
287.4876°
Rev number
5,920

§ Raw data

STARLINK-347101 65365U 25190Q   26263.94568395  .00012506  00000+0  38070-3 0  99942 65365  53.1615 339.5432 0001329  72.6272 287.4876 15.34395711 59205

JSON: /api/v1/satellites/65365 · /tle

For live sub-satellite position, see the globe view (requires WebGL).

§ Visibility from observer

Set your observer location to see the next 7 days of passes ≥ 10°. The values pass through the URL so the page stays shareable.

No JS? Fill the form by hand. The geolocation button needs JavaScript.